This is the latest recevied weather packets stored in our database for station/object GW1601. If no packets are shown the sender has not sent any weather packets the latest 10 day(s).
| Time | Temp. | Humidity | Pressure | Rain* | Wind** | Luminosity | Snow |
|---|---|---|---|---|---|---|---|
| 1777739970 | 11.11° C | 47% | 991.8 hPa | 0 mm | - | - | - |
| 1777736750 | 11.11° C | 46% | 992.2 hPa | 0 mm | - | - | - |
| 1777733504 | 10° C | 51% | 992.2 hPa | 0 mm | - | - | - |
| 1777729880 | 8.89° C | 63% | 991.8 hPa | 0 mm | - | - | - |
| 1777729515 | 8.33° C | 70% | 991.8 hPa | 0 mm | - | - | - |
| 1777727713 | 6.11° C | 84% | 992.2 hPa | 0 mm | - | - | - |
| 1777725575 | 3.33° C | 99% | 992.2 hPa | 0 mm | - | - | - |
| 1777724847 | 2.78° C | 99% | 991.8 hPa | 0 mm | - | - | - |
| 1777723763 | 2.22° C | 99% | 992.2 hPa | 0 mm | - | - | - |
| 1777721617 | 0° C | 99% | 992.2 hPa | 0 mm | - | - | - |
| 1777720521 | -0.56° C | 99% | 991.8 hPa | 0 mm | - | - | - |
| 1777719111 | -1.11° C | 99% | 991.8 hPa | 0 mm | - | - | - |
| 1777718384 | -0.56° C | 99% | 991.8 hPa | 0 mm | - | - | - |
| 1777715864 | -0.56° C | 99% | 991.5 hPa | 0 mm | - | - | - |
| 1777715125 | -0.56° C | 99% | 991.8 hPa | 0 mm | - | - | - |
| 1777714411 | -0.56° C | 99% | 991.8 hPa | 0 mm | - | - | - |
| 1777713351 | 0° C | 99% | 992.2 hPa | 0 mm | - | - | - |
| 1777711177 | 0° C | 99% | 991.5 hPa | 0 mm | - | - | - |
| 1777709024 | 0.56° C | 99% | 991.5 hPa | 0 mm | - | - | - |
| 1777705418 | 1.11° C | 99% | 991.1 hPa | 0 mm | - | - | - |
| 1777705032 | 1.11° C | 99% | 991.1 hPa | 0 mm | - | - | - |
| 1777698588 | 3.33° C | 99% | 992.2 hPa | 0 mm | - | - | - |
| 1777696791 | 4.44° C | 99% | 992.2 hPa | 0 mm | - | - | - |
| 1777693193 | 3.89° C | 99% | 992.5 hPa | 1.02 mm | - | - | - |
| 1777689589 | 3.33° C | 99% | 991.8 hPa | 1.02 mm | - | - | - |
* Rain since midnight (hover to see other rain measurements)
** Current wind speed in m/s (hover to see current wind gust speed)